CW9928 Weather Reports


Display with metric or nautical units.
time (UTC)temp
F
wind
direction
speed
MPH
gust
MPH
rain 1hr
in
rain 24hr
in
rain mn
in
humidity
%
barometer
mb
20200404001105 46 17 0.0 2.0 0.00 0.00 0.00 79 1015.9
20200404000539 46 17 0.0 1.0 0.00 0.00 0.00 78 1015.9
20200404000001 46 17 0.0 4.0 0.00 0.00 0.00 78 1015.9
20200403235550 46 17 0.0 4.0 0.00 0.00 0.00 77 1015.9
20200403235025 47 17 0.0 7.0 0.00 0.00 0.00 75 1015.8
20200403234514 47 16 4.0 7.0 0.00 0.00 0.00 74 1015.8
20200403234048 47 24 0.0 5.0 0.00 0.00 0.00 73 1015.7
20200403233529 48 24 0.0 7.0 0.00 0.00 0.00 72 1015.7
20200403233010 48 24 2.0 8.0 0.00 0.00 0.00 71 1015.7
20200403232553 48 25 1.0 8.0 0.00 0.00 0.00 71 1015.6
20200403232047 49 336 1.0 5.0 0.00 0.00 0.00 70 1015.6
20200403231532 49 335 0.0 6.0 0.00 0.00 0.00 70 1015.6
20200403231057 49 334 0.0 7.0 0.00 0.00 0.00 69 1015.5
20200403230544 49 336 1.0 7.0 0.00 0.00 0.00 68 1015.5
20200403225545 49 287 1.0 3.0 0.00 0.00 0.00 67 1015.4
20200403225025 49 287 0.0 2.0 0.00 0.00 0.00 68 1015.4
20200403224507 49 287 0.0 5.0 0.00 0.00 0.00 67 1015.3
20200403224046 49 287 1.0 5.0 0.00 0.00 0.00 67 1015.3
20200403223534 49 287 0.0 5.0 0.00 0.00 0.00 68 1015.2
20200403223008 49 286 0.0 4.0 0.00 0.00 0.00 67 1015.1
20200403222556 49 286 0.0 5.0 0.00 0.00 0.00 67 1015.1
20200403222031 50 286 0.0 5.0 0.00 0.00 0.00 67 1015.0
20200403221546 50 285 0.0 4.0 0.00 0.00 0.00 67 1015.0
20200403221055 50 285 0.0 4.0 0.00 0.00 0.00 66 1015.0
20200403220538 50 285 0.0 1.0 0.00 0.00 0.00 66 1015.0
20200403215543 50 285 0.0 2.0 0.00 0.00 0.00 67 1014.9
20200403215018 50 285 0.0 4.0 0.00 0.00 0.00 66 1014.9
20200403214041 50 285 0.0 4.0 0.00 0.00 0.00 66 1014.8
20200403213524 50 285 0.0 4.0 0.00 0.00 0.00 66 1014.7
20200403213008 49 285 0.0 5.0 0.00 0.00 0.00 66 1014.8
20200403212551 50 284 1.0 5.0 0.00 0.00 0.00 66 1014.8
20200403212036 50 284 0.0 6.0 0.00 0.00 0.00 66 1014.8
20200403211540 50 284 0.0 6.0 0.00 0.00 0.00 65 1014.8
20200403211050 50 284 1.0 8.0 0.00 0.00 0.00 66 1014.8
20200403210533 50 284 1.0 8.0 0.00 0.00 0.00 65 1014.8
20200403205536 50 296 1.0 5.0 0.00 0.00 0.00 66 1014.8
20200403205016 50 296 1.0 6.0 0.00 0.00 0.00 66 1014.7
20200403204707 50 302 1.0 6.0 0.00 0.00 0.00 66 1014.8
20200403204048 50 302 0.0 6.0 0.00 0.00 0.00 67 1014.8
20200403203520 50 302 3.0 6.0 0.00 0.00 0.00 66 1014.7
20200403202544 50 329 1.0 7.0 0.00 0.00 0.00 66 1014.7
20200403202034 49 300 0.0 7.0 0.00 0.00 0.00 67 1014.7
20200403201510 49 307 3.0 6.0 0.00 0.00 0.00 69 1014.6
20200403201048 49 283 0.0 8.0 0.00 0.00 0.00 69 1014.6
20200403200528 49 283 2.0 8.0 0.00 0.00 0.00 68 1014.6
20200403195538 49 286 1.0 7.0 0.00 0.00 0.00 68 1014.6
20200403195024 49 281 0.0 7.0 0.00 0.00 0.00 68 1014.7
20200403194644 49 279 0.0 7.0 0.00 0.00 0.00 68 1014.7
20200403194038 49 279 2.0 10.0 0.00 0.00 0.00 69 1014.6
20200403193541 48 271 2.0 10.0 0.00 0.00 0.00 67 1014.7
20200403192554 48 279 4.0 9.0 0.00 0.00 0.00 67 1014.8
20200403192021 48 278 1.0 8.0 0.00 0.00 0.00 68 1014.8
20200403191510 49 339 1.0 6.0 0.00 0.00 0.00 67 1014.7
20200403191105 48 346 1.0 6.0 0.00 0.00 0.00 68 1014.8
20200403190526 48 345 1.0 6.0 0.00 0.00 0.00 69 1014.7
20200403185532 47 342 3.0 8.0 0.00 0.00 0.00 70 1014.6
20200403185012 47 275 1.0 8.0 0.00 0.00 0.00 69 1014.7
20200403184650 47 273 3.0 8.0 0.00 0.00 0.00 70 1014.8
20200403184041 46 284 4.0 7.0 0.00 0.00 0.00 70 1014.7
20200403183516 46 288 2.0 6.0 0.00 0.00 0.00 71 1014.8
20200403183320 46 288 0.0 6.0 0.00 0.00 0.00 71 1014.8
20200403182540 46 288 2.0 6.0 0.00 0.00 0.00 72 1014.9
20200403182020 46 287 2.0 6.0 0.00 0.00 0.00 72 1014.8
20200403181050 45 279 1.0 6.0 0.00 0.00 0.00 74 1014.9
20200403180528 45 279 3.0 5.0 0.00 0.00 0.00 74 1014.9
20200403175529 44 279 1.0 6.0 0.00 0.00 0.00 74 1015.0
20200403175016 44 269 1.0 10.0 0.00 0.00 0.00 75 1015.1
20200403174709 44 269 4.0 10.0 0.00 0.00 0.00 74 1015.1
20200403174034 44 299 2.0 7.0 0.00 0.00 0.00 74 1015.2
20200403173522 44 299 2.0 7.0 0.00 0.00 0.00 75 1015.3
20200403173108 44 13 1.0 7.0 0.00 0.00 0.00 76 1015.3
20200403172536 44 333 0.0 6.0 0.00 0.00 0.00 76 1015.3
20200403172034 44 334 1.0 8.0 0.00 0.00 0.00 75 1015.4
20200403171041 43 320 2.0 6.0 0.00 0.00 0.00 75 1015.4
20200403170523 43 321 1.0 6.0 0.00 0.00 0.00 76 1015.4
20200403165527 43 292 3.0 6.0 0.00 0.00 0.00 76 1015.4
20200403165007 43 323 2.0 6.0 0.00 0.00 0.00 77 1015.4
20200403164726 43 296 0.0 6.0 0.00 0.00 0.00 77 1015.4
20200403164035 43 346 0.0 6.0 0.00 0.00 0.00 77 1015.4
20200403163509 43 355 1.0 7.0 0.00 0.00 0.00 76 1015.5
20200403163125 43 355 2.0 7.0 0.00 0.00 0.00 76 1015.4
20200403162532 43 346 1.0 6.0 0.00 0.00 0.00 77 1015.5
20200403162038 43 293 0.0 7.0 0.00 0.00 0.00 78 1015.4
20200403161752 43 293 3.0 7.0 0.00 0.00 0.00 77 1015.4
20200403161040 42 316 1.0 7.0 0.00 0.00 0.00 78 1015.3
20200403160516 42 315 2.0 7.0 0.00 0.00 0.00 77 1015.4
20200403155528 42 10 3.0 8.0 0.00 0.00 0.00 77 1015.5
20200403155003 42 12 2.0 8.0 0.00 0.00 0.00 77 1015.6
20200403154644 42 333 4.0 8.0 0.00 0.00 0.00 76 1015.7
20200403154032 42 355 3.0 8.0 0.00 0.00 0.00 76 1015.7
20200403153510 42 351 3.0 8.0 0.00 0.00 0.00 74 1015.8
20200403153154 42 351 3.0 8.0 0.00 0.00 0.00 73 1015.9
20200403152547 42 13 2.0 6.0 0.00 0.00 0.00 72 1015.8
20200403152011 41 320 1.0 5.0 0.00 0.00 0.00 73 1015.7
20200403151623 41 318 1.0 7.0 0.00 0.00 0.00 73 1015.6
20200403151057 41 306 1.0 7.0 0.00 0.00 0.00 73 1015.4
20200403150518 41 289 1.0 6.0 0.00 0.00 0.00 73 1015.3
20200403150152 41 289 0.0 6.0 0.00 0.00 0.00 73 1015.2
20200403145535 41 286 2.0 7.0 0.00 0.00 0.00 73 1015.3
20200403144643 41 334 2.0 8.0 0.00 0.00 0.00 73 1015.2
20200403144021 41 355 1.0 5.0 0.00 0.00 0.00 74 1015.2
20200403143501 41 355 2.0 6.0 0.00 0.00 0.00 73 1015.2
20200403143154 41 12 1.0 7.0 0.00 0.00 0.00 74 1015.1
20200403142526 41 300 1.0 7.0 0.00 0.00 0.00 73 1015.1
20200403142005 41 344 0.0 6.0 0.00 0.00 0.00 73 1015.1
20200403141659 41 15 2.0 6.0 0.00 0.00 0.00 73 1015.0
20200403141029 41 26 0.0 8.0 0.00 0.00 0.00 74 1015.0
20200403140510 41 340 2.0 8.0 0.00 0.00 0.00 73 1015.0
20200403140142 41 17 4.0 8.0 0.00 0.00 0.00 73 1015.1
20200403135516 40 325 1.0 7.0 0.00 0.00 0.00 74 1015.1
20200403135059 40 319 2.0 8.0 0.00 0.00 0.00 74 1015.0
20200403134718 40 319 1.0 8.0 0.00 0.00 0.00 74 1014.9
20200403134030 40 347 2.0 8.0 0.00 0.00 0.00 74 1015.0
20200403133212 40 18 3.0 9.0 0.00 0.00 0.00 74 1014.7
20200403132529 40 342 2.0 8.0 0.00 0.00 0.00 74 1014.8
20200403132004 40 325 3.0 10.0 0.00 0.00 0.00 74 1014.8
20200403131610 40 313 4.0 10.0 0.00 0.00 0.00 74 1014.8
20200403131027 40 348 2.0 10.0 0.00 0.00 0.00 74 1014.7
20200403130512 40 303 2.0 10.0 0.00 0.00 0.00 74 1014.6
20200403130138 40 279 4.0 8.0 0.00 0.00 0.00 74 1014.7
20200403125511 40 5 4.0 10.0 0.00 0.00 0.00 74 1014.5
20200403125105 40 300 3.0 10.0 0.00 0.00 0.00 75 1014.5
20200403124548 39 314 3.0 8.0 0.00 0.00 0.00 75 1014.5
20200403124021 39 307 2.0 7.0 0.00 0.00 0.00 75 1014.5
20200403123620 39 240 2.0 6.0 0.00 0.00 0.00 76 1014.7
20200403123120 39 304 2.0 8.0 0.00 0.00 0.00 77 1014.7
20200403122522 39 10 4.0 8.0 0.00 0.00 0.00 77 1014.6
20200403121547 39 306 1.0 6.0 0.00 0.00 0.00 78 1014.7
20200403121022 39 304 1.0 6.0 0.00 0.00 0.00 78 1014.5
20200403120511 38 295 3.0 6.0 0.00 0.00 0.00 78 1014.5
20200403120104 38 279 0.0 6.0 0.00 0.00 0.00 78 1014.6
20200403115514 38 278 2.0 6.0 0.00 0.00 0.00 78 1014.6
20200403115052 38 180 1.0 6.0 0.00 0.00 0.00 78 1014.5
20200403114608 38 311 1.0 6.0 0.00 0.00 0.00 78 1014.5
20200403114013 38 339 1.0 7.0 0.00 0.00 0.00 78 1014.4
20200403113600 38 286 0.0 7.0 0.00 0.00 0.00 78 1014.3
20200403113100 38 304 1.0 8.0 0.00 0.00 0.00 78 1014.4
20200403112521 38 304 2.0 8.0 0.00 0.00 0.00 78 1014.3
20200403112101 38 302 0.0 7.0 0.00 0.00 0.00 78 1014.3
20200403111553 38 307 2.0 7.0 0.00 0.00 0.00 78 1014.3
20200403111026 38 309 2.0 7.0 0.00 0.00 0.00 77 1014.2
20200403110110 38 286 2.0 5.0 0.00 0.00 0.00 77 1014.1
20200403105507 38 299 0.0 4.0 0.00 0.00 0.00 77 1014.1
20200403105051 38 299 0.0 6.0 0.00 0.00 0.00 77 1014.1
20200403104554 38 299 1.0 8.0 0.00 0.00 0.00 77 1014.1
20200403104013 38 294 1.0 5.0 0.00 0.00 0.00 76 1014.0
20200403103557 38 294 0.0 4.0 0.00 0.00 0.00 76 1014.0
20200403103057 38 293 0.0 7.0 0.00 0.00 0.00 76 1014.1
20200403102515 38 293 1.0 7.0 0.00 0.00 0.00 76 1014.0
20200403102109 38 296 0.0 6.0 0.00 0.00 0.00 76 1013.9
20200403101553 38 301 1.0 6.0 0.00 0.00 0.00 76 1014.0
20200403101018 38 314 0.0 4.0 0.00 0.00 0.00 76 1014.0
20200403100110 38 314 0.0 6.0 0.00 0.00 0.00 76 1014.0
20200403095502 38 318 1.0 5.0 0.00 0.00 0.00 76 1014.0
20200403095053 38 318 1.0 5.0 0.00 0.00 0.00 76 1013.9
20200403094559 38 319 0.0 5.0 0.00 0.00 0.00 76 1013.9
20200403094009 38 319 1.0 6.0 0.00 0.00 0.00 75 1013.9
20200403093549 38 318 1.0 6.0 0.00 0.00 0.00 75 1013.8
20200403093036 38 288 0.0 7.0 0.00 0.00 0.00 75 1013.8
20200403092514 38 324 0.0 2.0 0.00 0.00 0.00 75 1013.9
20200403092103 38 324 0.0 2.0 0.00 0.00 0.00 75 1013.9
20200403091749 38 324 0.0 4.0 0.00 0.00 0.00 75 1013.7
20200403091016 39 324 0.0 4.0 0.00 0.00 0.00 75 1013.5
20200403090558 39 324 0.0 4.0 0.00 0.00 0.00 75 1013.5
20200403090055 39 323 0.0 7.0 0.00 0.00 0.00 74 1013.4
20200403085101 39 319 0.0 1.0 0.00 0.00 0.00 74 1013.4
20200403084546 39 319 0.0 2.0 0.00 0.00 0.00 74 1013.4
20200403084003 39 319 0.0 2.0 0.00 0.00 0.00 73 1013.3
20200403083547 39 318 0.0 2.0 0.00 0.00 0.00 73 1013.3
20200403083102 39 318 0.0 5.0 0.00 0.00 0.00 73 1013.4
20200403082519 39 318 0.0 5.0 0.00 0.00 0.00 73 1013.4
20200403082052 40 316 0.0 4.0 0.00 0.00 0.00 73 1013.5
20200403081632 40 316 0.0 9.0 0.00 0.00 0.00 72 1013.4
20200403081016 40 290 0.0 9.0 0.00 0.00 0.00 72 1013.5
20200403080611 40 328 0.0 4.0 0.00 0.00 0.00 72 1013.5
20200403080101 40 328 0.0 2.0 0.00 0.00 0.00 71 1013.5
20200403075041 40 328 0.0 5.0 0.00 0.00 0.00 71 1013.3
20200403074611 40 304 0.0 4.0 0.00 0.00 0.00 70 1013.3
20200403074001 40 304 0.0 5.0 0.00 0.00 0.00 70 1013.3
20200403073546 40 303 1.0 6.0 0.00 0.00 0.00 69 1013.3
20200403073137 41 303 0.0 6.0 0.00 0.00 0.00 68 1013.4
20200403072505 41 34 0.0 5.0 0.00 0.00 0.00 68 1013.4
20200403072102 41 34 0.0 5.0 0.00 0.00 0.00 67 1013.4
20200403071619 41 34 0.0 4.0 0.00 0.00 0.00 67 1013.4
20200403071010 41 34 0.0 4.0 0.00 0.00 0.00 66 1013.5
20200403070557 41 34 0.0 4.0 0.00 0.00 0.00 66 1013.5
20200403070054 41 34 0.0 4.0 0.00 0.00 0.00 66 1013.4
20200403065559 42 34 0.0 2.0 0.00 0.00 0.00 66 1013.4
20200403065039 42 34 0.0 4.0 0.00 0.00 0.00 65 1013.4
20200403064537 42 34 0.0 8.0 0.00 0.00 0.00 64 1013.3
20200403064104 42 34 1.0 8.0 0.00 0.00 0.00 64 1013.4
20200403063535 42 38 1.0 7.0 0.00 0.00 0.00 63 1013.4
20200403063024 42 49 3.0 7.0 0.00 0.00 0.00 63 1013.4
20200403062600 42 39 2.0 7.0 0.00 0.00 0.00 63 1013.5
20200403062041 42 49 2.0 9.0 0.00 0.00 0.00 63 1013.5
20200403061518 42 27 3.0 9.0 0.00 0.00 0.00 63 1013.5
20200403060543 42 13 2.0 6.0 0.00 0.00 0.00 63 1013.6
20200403060017 42 11 1.0 5.0 0.00 0.00 0.00 62 1013.7
20200403055604 42 11 0.0 4.0 0.00 0.00 0.00 61 1013.7
20200403055028 42 11 0.0 5.0 0.00 0.00 0.00 61 1013.7
20200403054518 42 19 1.0 5.0 0.00 0.00 0.00 60 1013.6
20200403054053 42 19 0.0 5.0 0.00 0.00 0.00 59 1013.7
20200403053540 42 22 0.0 5.0 0.00 0.00 0.00 58 1013.7
20200403053015 42 21 0.0 2.0 0.00 0.00 0.00 57 1013.7
20200403052556 42 21 0.0 4.0 0.00 0.00 0.00 57 1013.6
20200403052036 42 21 0.0 4.0 0.00 0.00 0.00 56 1013.6
20200403051607 42 21 1.0 4.0 0.00 0.00 0.00 56 1013.7
20200403051101 43 20 0.0 6.0 0.00 0.00 0.00 56 1013.6
20200403050553 43 20 1.0 6.0 0.00 0.00 0.00 56 1013.7
20200403050004 43 310 1.0 7.0 0.00 0.00 0.00 56 1013.5
20200403045553 43 309 2.0 7.0 0.00 0.00 0.00 56 1013.7
20200403045044 43 288 1.0 7.0 0.00 0.00 0.00 56 1013.6
20200403044509 43 320 1.0 6.0 0.00 0.00 0.00 55 1013.6
20200403044050 44 284 0.0 6.0 0.00 0.00 0.00 54 1013.7
20200403043530 44 360 1.0 7.0 0.00 0.00 0.00 53 1013.7
20200403043011 44 269 1.0 8.0 0.00 0.00 0.00 52 1013.8
20200403042626 44 267 2.0 10.0 0.00 0.00 0.00 52 1013.8
20200403042042 44 314 2.0 10.0 0.00 0.00 0.00 52 1013.9
20200403041545 44 264 2.0 8.0 0.00 0.00 0.00 51 1013.7
20200403041107 44 37 0.0 9.0 0.00 0.00 0.00 51 1013.9
20200403040554 44 42 0.0 9.0 0.00 0.00 0.00 51 1013.9
20200403035545 44 350 0.0 8.0 0.00 0.00 0.00 51 1013.8
20200403035025 44 5 2.0 8.0 0.00 0.00 0.00 50 1013.7
20200403034537 44 30 2.0 11.0 0.00 0.00 0.00 50 1013.7
20200403034104 44 5 3.0 11.0 0.00 0.00 0.00 50 1013.7
20200403033534 44 349 2.0 7.0 0.00 0.00 0.00 51 1013.7
20200403033009 44 37 1.0 9.0 0.00 0.00 0.00 51 1013.7
20200403032612 44 42 1.0 9.0 0.00 0.00 0.00 51 1013.7
20200403032032 44 283 1.0 9.0 0.00 0.00 0.00 52 1013.7
20200403031526 44 355 0.0 7.0 0.00 0.00 0.00 52 1013.8
20200403031057 44 342 1.0 7.0 0.00 0.00 0.00 52 1013.8
20200403030559 45 343 2.0 7.0 0.00 0.00 0.00 52 1013.9
20200403025601 45 294 0.0 9.0 0.00 0.00 0.00 51 1013.9
20200403025032 45 277 2.0 9.0 0.00 0.00 0.00 50 1013.9
20200403024503 45 320 1.0 9.0 0.00 0.00 0.00 50 1013.7
20200403024054 45 298 0.0 8.0 0.00 0.00 0.00 49 1013.9
20200403023527 45 271 2.0 8.0 0.00 0.00 0.00 49 1013.7
20200403023021 45 319 1.0 7.0 0.00 0.00 0.00 48 1013.7
20200403022550 45 302 2.0 9.0 0.00 0.00 0.00 47 1013.7
20200403022038 45 286 1.0 12.0 0.00 0.00 0.00 47 1013.7
20200403021526 46 286 1.0 12.0 0.00 0.00 0.00 47 1013.8
20200403021051 46 309 3.0 8.0 0.00 0.00 0.00 46 1013.8
20200403020528 46 343 1.0 6.0 0.00 0.00 0.00 46 1014.0
20200403015534 46 346 1.0 10.0 0.00 0.00 0.00 46 1013.9
20200403015014 46 290 2.0 10.0 0.00 0.00 0.00 45 1013.9
20200403014726 46 355 2.0 8.0 0.00 0.00 0.00 45 1013.9
20200403014038 46 340 2.0 8.0 0.00 0.00 0.00 45 1013.9
20200403013534 46 5 2.0 6.0 0.00 0.00 0.00 44 1014.0
20200403012542 46 343 1.0 7.0 0.00 0.00 0.00 44 1013.9
20200403012022 46 15 3.0 9.0 0.00 0.00 0.00 44 1013.9
20200403011510 46 286 2.0 9.0 0.00 0.00 0.00 45 1014.0
20200403011046 46 300 1.0 6.0 0.00 0.00 0.00 45 1014.0
20200403010529 46 267 1.0 8.0 0.00 0.00 0.00 44 1013.9
20200403005532 46 36 1.0 6.0 0.00 0.00 0.00 43 1013.7
20200403005016 46 345 2.0 6.0 0.00 0.00 0.00 44 1013.7
20200403004556 46 342 0.0 6.0 0.00 0.00 0.00 44 1013.6
20200403004037 47 342 1.0 6.0 0.00 0.00 0.00 43 1013.5
20200403003517 47 297 0.0 7.0 0.00 0.00 0.00 43 1013.3
20200403003358 47 347 2.0 7.0 0.00 0.00 0.00 42 1013.3
20200403002531 47 290 0.0 6.0 0.00 0.00 0.00 41 1013.2
20200403002011 47 290 2.0 7.0 0.00 0.00 0.00 41 1013.2
20200403001707 48 11 1.0 7.0 0.00 0.00 0.00 40 1013.2